ギャラッド彗星

C/2006 L1 ( Garradd )

English version
Home page
Updated on January 20, 2013

---------------------------------------------------------------------

・ プロフィール

発見日 2006年6月4日
発見光度 17.9等
発見者 Gordon J. Garradd (Siding Spring Survey)

・ 写真集

・ 軌道要素

Epoch 2006 Nov. 1.0 TT = JDT 2454040.5
T 2006 Oct. 18.00256 TT                                 MPC
q   1.4620711            (2000.0)            P               Q
z  +0.0018275      Peri.  338.40984     -0.47813164     +0.65432898
 +/-0.0000019      Node   101.76018     +0.86766754     +0.24847946
e   0.9973281      Incl.  143.24235     +0.13617331     +0.71422094
From 634 observations 2006 June 4-2007 Mar. 12, mean residual 0".5.

・ 星図

・ 光度変化

        m1 = 4.0 + 5 logΔ + 30.0 log r(t - 20)

---------------------------------------------------------------------

軌道要素はM.P.E.C. 2013-A29に掲載されたものです。
星図は StellaNavigator Ver.2.0 for Windows (アストロアーツ 編著 / アスキー出版局刊) で作成したものです。
光度グラフはComet for Windowsで作成したものです。

---------------------------------------------------------------------

Copyright(C) Seiichi Yoshida (comet@aerith.net). All rights reserved.